Bluefield, WV

7:43 PM EST on December 08, 2019 (GMT -0500)
Mercer County

Weather History for KBLF - November, 2019

Change the Weather History Date:

Monday, November 18, 2019

  Actual Average Record
Temperature  
Mean Temperature 40 °F 46 °F  
Max Temperature 47 °F 55 °F 78 °F (1958)
Min Temperature 32 °F 38 °F 9 °F (1959)
Degree Days  
Heating Degree Days 25 19  
Month to date heating degree days 477 285  
Since 1 July heating degree days 790 649  
Cooling Degree Days 0 0  
Month to date cooling degree days 0 0  
Year to date cooling degree days 748 851  
Moisture  
Dew Point 32 °F    
Average Humidity 77    
Maximum Humidity 100    
Minimum Humidity 53    
Precipitation  
Precipitation T in 0.09 in 1.26 in (1929)
Month to date precipitation 0.35 1.56  
Year to date precipitation 35.15 35.59  
Snow  
Snow 0.00 in - - ()
Month to date snowfall 1.0  
Since 1 July snowfall 1.0  
Since 1 September snowfall 1.0  
Snow Depth 0.00 in    
Sea Level Pressure  
Sea Level Pressure 29.80 in    
Wind  
Wind Speed 4 mph (NW)    
Max Wind Speed 14 mph    
Max Gust Speed 19 mph    
Visibility 6 miles    
Events Fog , Rain    
T = Trace of Precipitation, MM = Missing Value Source: NWS Daily Summary

Daily Weather History Graph

Daily Weather History Graph

Search for Another Location

Airport or City:

Astronomy

Nov. 18, 2019 Rise Set
Actual Time 7:06 AM EST 5:12 PM EST
Civil Twilight 6:38 AM EST 5:40 PM EST
Nautical Twilight 6:07 AM EST 6:12 PM EST
Astronomical Twilight 5:36 AM EST 6:43 PM EST
Moon 10:56 PM EST (11/18) 12:36 PM EST (11/18)
Length of Visible Light 11h 01m
Length of Day
10h 05m
Waning Gibbous, 63% of the Moon is Illuminated
Nov 18
Waning Gibbous
Nov 19
Last Quarter
Nov 26
New
Dec 4
First Quarter
Dec 12
Full

Hourly Weather History & Observations

Time (EST) Temp. Windchill Dew Point Humidity Pressure Visibility Wind Dir Wind Speed Gust Speed Precip Events Conditions
12:52 AM 35.1 °F 32.2 °F 34.0 °F 96% 29.87 in 10.0 mi Variable 3.5 mph - N/A   Clear
1:52 AM 34.0 °F 31.0 °F 34.0 °F 100% 29.86 in 10.0 mi East 3.5 mph - N/A   Clear
2:52 AM 34.0 °F 31.0 °F 34.0 °F 100% 29.84 in 10.0 mi ENE 3.5 mph - N/A   Mostly Cloudy
3:44 AM 32.0 °F 28.7 °F 32.0 °F 100% 29.81 in 5.0 mi NNE 3.5 mph - N/A   Scattered Clouds
3:52 AM 32.0 °F - 32.0 °F 100% 29.83 in 4.0 mi Calm Calm - N/A   Scattered Clouds
4:07 AM 32.0 °F - 32.0 °F 100% 29.81 in 2.5 mi Calm Calm - N/A   Mostly Cloudy
4:17 AM 32.0 °F 27.5 °F 32.0 °F 100% 29.81 in 1.2 mi NE 4.6 mph - N/A   Overcast
4:22 AM 32.0 °F 28.7 °F 32.0 °F 100% 29.81 in 0.8 mi NE 3.5 mph - N/A   Overcast
4:39 AM 32.0 °F - 32.0 °F 100% 29.80 in 1.2 mi Calm Calm - N/A   Overcast
4:52 AM 32.0 °F - 32.0 °F 100% 29.83 in 1.5 mi Calm Calm - N/A   Overcast
5:02 AM 32.0 °F - 32.0 °F 100% 29.80 in 2.5 mi Calm Calm - N/A   Overcast
5:14 AM 32.0 °F - 32.0 °F 100% 29.80 in 1.0 mi Calm Calm - N/A   Overcast
5:23 AM 32.0 °F 28.7 °F 32.0 °F 100% 29.80 in 0.8 mi ESE 3.5 mph - N/A   Overcast
5:52 AM 32.0 °F - 32.0 °F 100% 29.83 in 0.2 mi Calm Calm - N/A Fog Fog
6:52 AM 33.1 °F - 33.1 °F 100% 29.83 in 0.5 mi Calm Calm - N/A Fog Fog
7:09 AM 32.0 °F - 32.0 °F 100% 29.81 in - Calm Calm - N/A   Overcast
7:37 AM 33.1 °F - 33.1 °F 100% 29.81 in 0.2 mi Calm Calm - N/A Fog Fog
7:52 AM 33.1 °F - 33.1 °F 100% 29.84 in 0.2 mi Calm Calm - N/A Fog Fog
8:52 AM 34.0 °F 31.0 °F 34.0 °F 100% 29.84 in 0.8 mi NNE 3.5 mph - N/A   Mist
8:55 AM 34.0 °F - 34.0 °F 100% 29.81 in 1.2 mi Calm Calm - N/A   Overcast
9:00 AM 35.1 °F 32.2 °F 35.1 °F 100% 29.81 in 3.0 mi East 3.5 mph - N/A   Overcast
9:35 AM 37.0 °F - 36.0 °F 96% 29.80 in 9.0 mi Calm Calm - N/A   Mostly Cloudy
10:52 AM 42.1 °F 40.2 °F 37.0 °F 82% 29.81 in 10.0 mi SW 3.5 mph - N/A   Overcast
11:52 AM 42.1 °F 38.4 °F 36.0 °F 79% 29.77 in 10.0 mi SW 5.8 mph - N/A   Overcast
12:52 PM 43.0 °F 39.5 °F 32.0 °F 65% 29.75 in 10.0 mi Variable 5.8 mph - N/A   Overcast
1:09 PM 42.1 °F 37.7 °F 32.0 °F 67% 29.74 in 10.0 mi West 6.9 mph - 0.00 in Rain Light Rain
1:52 PM 42.1 °F 37.7 °F 34.0 °F 73% 29.75 in 10.0 mi WSW 6.9 mph - 0.00 in   Overcast
2:52 PM 45.0 °F 39.7 °F 30.0 °F 56% 29.73 in 10.0 mi NW 10.4 mph - N/A   Overcast
4:52 PM 43.0 °F 39.5 °F 28.9 °F 58% 29.73 in 10.0 mi Variable 5.8 mph - N/A   Clear
5:52 PM 42.1 °F 40.2 °F 28.9 °F 60% 29.75 in 10.0 mi NW 3.5 mph - N/A   Overcast
6:52 PM 41.0 °F 39.0 °F 28.9 °F 62% 29.77 in 10.0 mi WNW 3.5 mph - N/A   Overcast
7:52 PM 39.0 °F 35.7 °F 30.0 °F 70% 29.78 in 10.0 mi West 4.6 mph - N/A   Mostly Cloudy
8:52 PM 39.0 °F 35.7 °F 30.9 °F 73% 29.78 in 10.0 mi West 4.6 mph - N/A   Overcast
9:52 PM 37.9 °F - 30.9 °F 76% 29.78 in 10.0 mi Calm Calm - N/A   Overcast
10:52 PM 37.0 °F 34.5 °F 30.9 °F 79% 29.78 in 10.0 mi WSW 3.5 mph - N/A   Mostly Cloudy
11:52 PM 37.0 °F 34.5 °F 30.9 °F 79% 29.78 in 10.0 mi SW 3.5 mph - N/A   Overcast